Location: Cactus School
(34.5700°N, 118.0931°W)
Time: 03:29:34
(UTC-07:00)

Courier 1B - Pass Details

Date: 26 April 2024
Orbit: 962 x 1208 km, 28.3° (Epoch: 23 May)

Event Time Altitude Azimuth Distance (km) Brightness Sun altitude
Exits shadow 04:57:06 19° 248° (WSW) 2,387 8.9 -14.1°
Maximum altitude 05:01:11 31° 201° (SSW) 1,780 8.5 -13.4°
Drops below altitude 10° 05:07:11 10° 141° (SE) 2,838 10.1 -12.2°
Sets 05:10:07 0° 131° (SE) 3,752 10.9 -11.7°
